Weather in Snezhnoye

Russia / Chukotka Autonomous Okrug     65°26′51″N   172°58′41″E
temp.,
°C
wind,
m/s
gust,
m/s
humid.,
%
clouds,
%
prec.,
mm/h
press.,
hPa
HPBL,
m
27 february, sat
sat2700:00−35ne22860 0.0 103219
03:00−35ne22870 0.0 103119
06:00−35ne12880 0.0 103119
09:00−35ene11880 0.0 103019
12:00−32ne11860 0.0 103131
15:00−32nne11860 0.0 102919
18:00−34n01920 0.0 102919
21:00−34nnw01920 0.0 102919
28 february, sun
sun2800:00−34nne11910 0.0 103019
03:00−35nnw00900 0.0 102919
06:00−35nw00890 0.0 103019
09:00−35wnw01850 0.0 103019
12:00−32wnw11830 0.0 103120
15:00−32nnw11820 0.0 103019
18:00−35nne11870 0.0 103019
21:00−35ne11870 0.0 103119
1 march, mon
mon100:00−35ene23840 0.0 103019
03:00−35ene33840 0.0 102819
06:00−35ne34820 0.0 102621
09:00−33ne34800 0.0 102432
12:00−29ne48813 0.0 1021180
15:00−28ne3482100 0.0 101793
18:00−29nne448097 0.0 101538
21:00−29ne348012 0.0 101430
2 march, tue
tue200:00−29ne237910 0.0 101422
03:00−29ne22780 0.0 101421
06:00−31ne12790 0.0 101419
09:00−30ne11770 0.0 101519
12:00−28ne22810 0.0 101632
15:00−29ne12830 0.0 101723
18:00−32ne11910 0.0 101919
21:00−33nne11900 0.0 102119
3 march, wed
wed300:00−34nne11890 0.0 102219
03:00−34ne11880 0.0 102319
06:00−35nne11880 0.0 102519
09:00−35nne11870 0.0 102619
12:00−32n11860 0.0 102723
15:00−32nne11840 0.0 102719
18:00−34ne12860 0.0 102819
21:00−35ene22880 0.0 102919